Time,TemperatureF,DewpointF,PressureIn,WindDirection,WindDirectionDegrees,WindSpeedMPH,WindSpeedGustMPH,Humidity,HourlyPrecipIn,Conditions,Clouds,dailyrainin,SoftwareType,DateUTC
2013-05-02 00:03:00,72.0,-99.9,-100.00,NNE,32,0.0,1.0,-999,-99.99,,,-99.99,,2013-05-02 04:03:00,
2013-05-02 00:12:00,72.0,-99.9,-100.00,NNE,32,0.0,1.0,-999,-99.99,,,-99.99,,2013-05-02 04:12:00,
2013-05-02 00:23:00,70.0,-99.9,-100.00,East,81,0.0,2.0,-999,-99.99,,,-99.99,,2013-05-02 04:23:00,
2013-05-02 00:33:00,70.0,-99.9,-100.00,East,81,0.0,2.0,-999,-99.99,,,-99.99,,2013-05-02 04:33:00,
2013-05-02 00:43:00,70.0,-99.9,-100.00,East,85,1.0,2.0,-999,-99.99,,,-99.99,,2013-05-02 04:43:00,
2013-05-02 00:52:00,70.0,-99.9,-100.00,East,85,1.0,2.0,-999,-99.99,,,-99.99,,2013-05-02 04:52:00,
2013-05-02 01:02:00,70.0,-99.9,-100.00,East,85,1.0,2.0,-999,-99.99,,,-99.99,,2013-05-02 05:02:00,
2013-05-02 01:12:00,70.0,-99.9,-100.00,East,85,1.0,2.0,-999,-99.99,,,-99.99,,2013-05-02 05:12:00,
2013-05-02 01:22:00,69.0,-99.9,-100.00,East,82,1.0,1.0,-999,-99.99,,,-99.99,,2013-05-02 05:22:00,
2013-05-02 01:32:00,69.0,-99.9,-100.00,East,82,1.0,1.0,-999,-99.99,,,-99.99,,2013-05-02 05:32:00,
2013-05-02 01:42:00,69.0,-99.9,-100.00,East,82,1.0,1.0,-999,-99.99,,,-99.99,,2013-05-02 05:42:00,
2013-05-02 01:52:00,68.0,-99.9,-100.00,East,84,0.0,2.0,-999,-99.99,,,-99.99,,2013-05-02 05:52:00,
2013-05-02 02:02:00,68.0,-99.9,-100.00,East,84,0.0,2.0,-999,-99.99,,,-99.99,,2013-05-02 06:02:00,
2013-05-02 02:12:00,68.0,-99.9,-100.00,East,84,0.0,2.0,-999,-99.99,,,-99.99,,2013-05-02 06:12:00,
2013-05-02 02:22:00,67.0,-99.9,-100.00,ENE,61,0.0,2.0,-999,-99.99,,,-99.99,,2013-05-02 06:22:00,
2013-05-02 02:32:00,67.0,-99.9,-100.00,ENE,61,0.0,2.0,-999,-99.99,,,-99.99,,2013-05-02 06:32:00,
2013-05-02 02:42:00,67.0,-99.9,-100.00,ENE,61,0.0,2.0,-999,-99.99,,,-99.99,,2013-05-02 06:42:00,
2013-05-02 02:52:00,67.0,-99.9,-100.00,ENE,61,0.0,2.0,-999,-99.99,,,-99.99,,2013-05-02 06:52:00,
2013-05-02 03:02:00,67.0,-99.9,-100.00,East,99,0.0,2.0,-999,-99.99,,,-99.99,,2013-05-02 07:02:00,
2013-05-02 03:11:00,67.0,-99.9,-100.00,East,99,0.0,2.0,-999,-99.99,,,-99.99,,2013-05-02 07:11:00,
2013-05-02 03:22:00,67.0,-99.9,-100.00,ESE,113,1.0,4.0,-999,-99.99,,,-99.99,,2013-05-02 07:22:00,
2013-05-02 03:32:00,67.0,-99.9,-100.00,ESE,113,1.0,4.0,-999,-99.99,,,-99.99,,2013-05-02 07:32:00,
2013-05-02 03:42:00,67.0,-99.9,-100.00,ESE,113,1.0,4.0,-999,-99.99,,,-99.99,,2013-05-02 07:42:00,
2013-05-02 03:52:00,67.0,-99.9,-100.00,SE,126,0.0,4.0,-999,-99.99,,,-99.99,,2013-05-02 07:52:00,
2013-05-02 04:00:00,66.0,-99.9,-100.00,East,79,1.0,4.0,-999,-99.99,,,-99.99,,2013-05-02 08:00:00,
2013-05-02 04:02:00,67.0,-99.9,-100.00,SE,126,0.0,4.0,-999,-99.99,,,-99.99,,2013-05-02 08:02:00,
2013-05-02 04:12:00,67.0,-99.9,-100.00,SE,126,0.0,4.0,-999,-99.99,,,-99.99,,2013-05-02 08:12:00,
2013-05-02 04:22:00,66.0,-99.9,-100.00,East,79,1.0,4.0,-999,-99.99,,,-99.99,,2013-05-02 08:22:00,
2013-05-02 04:32:00,66.0,-99.9,-100.00,East,79,1.0,4.0,-999,-99.99,,,-99.99,,2013-05-02 08:32:00,
2013-05-02 04:42:00,66.0,-99.9,-100.00,East,79,1.0,4.0,-999,-99.99,,,-99.99,,2013-05-02 08:42:00,
2013-05-02 04:52:00,66.0,-99.9,-100.00,East,79,1.0,4.0,-999,-99.99,,,-99.99,,2013-05-02 08:52:00,
2013-05-02 05:12:00,66.0,-99.9,-100.00,ESE,116,1.0,6.0,-999,-99.99,,,-99.99,,2013-05-02 09:12:00,
2013-05-02 05:22:00,57.0,-99.9,-100.00,NW,312,1.0,5.0,-999,-99.99,,,-99.99,,2013-05-02 09:22:00,
2013-05-02 05:33:00,57.0,-99.9,-100.00,NW,312,1.0,5.0,-999,-99.99,,,-99.99,,2013-05-02 09:33:00,
2013-05-02 05:43:00,53.0,-99.9,-100.00,NNW,336,4.0,9.0,-999,-99.99,,,-99.99,,2013-05-02 09:43:00,
2013-05-02 05:53:00,53.0,-99.9,-100.00,NNW,336,4.0,9.0,-999,-99.99,,,-99.99,,2013-05-02 09:53:00,
2013-05-02 06:03:00,53.0,-99.9,-100.00,NNW,336,4.0,9.0,-999,-99.99,,,-99.99,,2013-05-02 10:03:00,
2013-05-02 06:12:00,53.0,-99.9,-100.00,NNW,336,4.0,9.0,-999,-99.99,,,-99.99,,2013-05-02 10:12:00,
2013-05-02 06:23:00,49.0,-99.9,-100.00,NNE,19,4.0,7.0,-999,-99.99,,,-99.99,,2013-05-02 10:23:00,
2013-05-02 06:33:00,49.0,-99.9,-100.00,NNE,19,4.0,7.0,-999,-99.99,,,-99.99,,2013-05-02 10:33:00,
2013-05-02 06:42:00,50.0,-99.9,-100.00,NNW,346,8.0,10.0,-999,-99.99,,,-99.99,,2013-05-02 10:42:00,
2013-05-02 06:53:00,50.0,-99.9,-100.00,NNW,346,8.0,10.0,-999,-99.99,,,-99.99,,2013-05-02 10:53:00,
2013-05-02 07:02:00,50.0,-99.9,-100.00,NNW,346,8.0,10.0,-999,-99.99,,,-99.99,,2013-05-02 11:02:00,
2013-05-02 07:12:00,50.0,-99.9,-100.00,NNW,346,8.0,10.0,-999,-99.99,,,-99.99,,2013-05-02 11:12:00,
2013-05-02 07:22:00,50.0,-99.9,-100.00,NNE,20,4.0,5.0,-999,-99.99,,,-99.99,,2013-05-02 11:22:00,
2013-05-02 07:32:00,50.0,-99.9,-100.00,NNE,20,4.0,5.0,-999,-99.99,,,-99.99,,2013-05-02 11:32:00,
2013-05-02 07:42:00,50.0,-99.9,-100.00,NNE,18,6.0,10.0,-999,-99.99,,,-99.99,,2013-05-02 11:42:00,
2013-05-02 07:52:00,50.0,-99.9,-100.00,NNE,18,6.0,10.0,-999,-99.99,,,-99.99,,2013-05-02 11:52:00,
2013-05-02 08:02:00,50.0,-99.9,-100.00,NNE,18,6.0,10.0,-999,-99.99,,,-99.99,,2013-05-02 12:02:00,
2013-05-02 08:12:00,50.0,-99.9,-100.00,NNE,18,6.0,10.0,-999,-99.99,,,-99.99,,2013-05-02 12:12:00,
2013-05-02 08:22:00,49.0,-99.9,-100.00,NNW,345,6.0,9.0,-999,-99.99,,,-99.99,,2013-05-02 12:22:00,
2013-05-02 08:32:00,50.0,-99.9,-100.00,NNE,18,6.0,10.0,-999,-99.99,,,-99.99,,2013-05-02 12:32:00,
2013-05-02 08:42:00,50.0,-99.9,-100.00,NNE,18,6.0,10.0,-999,-99.99,,,-99.99,,2013-05-02 12:42:00,
2013-05-02 08:52:00,48.0,-99.9,-100.00,NW,326,5.0,9.0,-999,-99.99,,,-99.99,,2013-05-02 12:52:00,
2013-05-02 09:01:00,48.0,-99.9,-100.00,NW,326,5.0,9.0,-999,-99.99,,,-99.99,,2013-05-02 13:01:00,
2013-05-02 09:11:00,48.0,-99.9,-100.00,NW,326,5.0,9.0,-999,-99.99,,,-99.99,,2013-05-02 13:11:00,
2013-05-02 09:22:00,47.0,-99.9,-100.00,West,280,7.0,11.0,-999,-99.99,,,-99.99,,2013-05-02 13:22:00,
2013-05-02 09:32:00,47.0,-99.9,-100.00,West,280,7.0,11.0,-999,-99.99,,,-99.99,,2013-05-02 13:32:00,
2013-05-02 09:42:00,45.0,-99.9,-100.00,West,265,5.0,11.0,-999,-99.99,,,-99.99,,2013-05-02 13:42:00,
2013-05-02 09:52:00,45.0,-99.9,-100.00,West,265,5.0,11.0,-999,-99.99,,,-99.99,,2013-05-02 13:52:00,
2013-05-02 10:02:00,45.0,-99.9,-100.00,West,265,5.0,11.0,-999,-99.99,,,-99.99,,2013-05-02 14:02:00,
2013-05-02 10:11:00,45.0,-99.9,-100.00,West,265,5.0,11.0,-999,-99.99,,,-99.99,,2013-05-02 14:11:00,
2013-05-02 10:22:00,48.0,-99.9,-100.00,WSW,245,4.0,6.0,-999,-99.99,,,-99.99,,2013-05-02 14:22:00,
2013-05-02 10:32:00,48.0,-99.9,-100.00,WSW,245,4.0,6.0,-999,-99.99,,,-99.99,,2013-05-02 14:32:00,
2013-05-02 10:43:00,48.0,-99.9,-100.00,WSW,251,4.0,6.0,-999,-99.99,,,-99.99,,2013-05-02 14:43:00,
2013-05-02 10:52:00,48.0,-99.9,-100.00,WSW,251,4.0,6.0,-999,-99.99,,,-99.99,,2013-05-02 14:52:00,
2013-05-02 11:02:00,48.0,-99.9,-100.00,WSW,251,4.0,6.0,-999,-99.99,,,-99.99,,2013-05-02 15:02:00,
2013-05-02 11:12:00,48.0,-99.9,-100.00,WSW,251,4.0,6.0,-999,-99.99,,,-99.99,,2013-05-02 15:12:00,
2013-05-02 11:22:00,49.0,-99.9,-100.00,WSW,244,3.0,4.0,-999,-99.99,,,-99.99,,2013-05-02 15:22:00,
2013-05-02 11:33:00,49.0,-99.9,-100.00,WSW,244,3.0,4.0,-999,-99.99,,,-99.99,,2013-05-02 15:33:00,
2013-05-02 11:43:00,49.0,-99.9,-100.00,WSW,237,3.0,8.0,-999,-99.99,,,-99.99,,2013-05-02 15:43:00,
2013-05-02 12:03:00,49.0,-99.9,-100.00,WSW,237,3.0,8.0,-999,-99.99,,,-99.99,,2013-05-02 16:03:00,
2013-05-02 12:13:00,49.0,-99.9,-100.00,WSW,237,3.0,8.0,-999,-99.99,,,-99.99,,2013-05-02 16:13:00,
2013-05-02 12:23:00,49.0,-99.9,-100.00,WSW,241,6.0,7.0,-999,-99.99,,,-99.99,,2013-05-02 16:23:00,
2013-05-02 12:32:00,49.0,-99.9,-100.00,WSW,241,6.0,7.0,-999,-99.99,,,-99.99,,2013-05-02 16:32:00,
2013-05-02 12:43:00,47.0,-99.9,-100.00,WSW,258,6.0,7.0,-999,-99.99,,,-99.99,,2013-05-02 16:43:00,
2013-05-02 12:52:00,47.0,-99.9,-100.00,WSW,258,6.0,7.0,-999,-99.99,,,-99.99,,2013-05-02 16:52:00,
2013-05-02 13:02:00,47.0,-99.9,-100.00,WSW,258,6.0,7.0,-999,-99.99,,,-99.99,,2013-05-02 17:02:00,
2013-05-02 13:12:00,47.0,-99.9,-100.00,WSW,258,6.0,7.0,-999,-99.99,,,-99.99,,2013-05-02 17:12:00,
2013-05-02 13:22:00,45.0,-99.9,-100.00,WNW,284,6.0,8.0,-999,-99.99,,,-99.99,,2013-05-02 17:22:00,
2013-05-02 13:32:00,45.0,-99.9,-100.00,WNW,284,6.0,8.0,-999,-99.99,,,-99.99,,2013-05-02 17:32:00,
2013-05-02 13:42:00,47.0,-99.9,-100.00,WSW,258,6.0,7.0,-999,-99.99,,,-99.99,,2013-05-02 17:42:00,
2013-05-02 13:52:00,46.0,-99.9,-100.00,WNW,299,6.0,8.0,-999,-99.99,,,-99.99,,2013-05-02 17:52:00,
2013-05-02 14:02:00,46.0,-99.9,-100.00,WNW,299,6.0,8.0,-999,-99.99,,,-99.99,,2013-05-02 18:02:00,
2013-05-02 14:12:00,46.0,-99.9,-100.00,WNW,299,6.0,8.0,-999,-99.99,,,-99.99,,2013-05-02 18:12:00,
2013-05-02 14:22:00,47.0,-99.9,-100.00,WNW,302,7.0,9.0,-999,-99.99,,,-99.99,,2013-05-02 18:22:00,
2013-05-02 14:32:00,47.0,-99.9,-100.00,WNW,302,7.0,9.0,-999,-99.99,,,-99.99,,2013-05-02 18:32:00,
2013-05-02 14:42:00,47.0,-99.9,-100.00,WNW,302,7.0,9.0,-999,-99.99,,,-99.99,,2013-05-02 18:42:00,
2013-05-02 14:52:00,47.0,-99.9,-100.00,WNW,302,7.0,9.0,-999,-99.99,,,-99.99,,2013-05-02 18:52:00,
2013-05-02 15:01:00,45.0,-99.9,-100.00,WNW,283,9.0,11.0,-999,-99.99,,,-99.99,,2013-05-02 19:01:00,
2013-05-02 15:11:00,45.0,-99.9,-100.00,WNW,283,9.0,11.0,-999,-99.99,,,-99.99,,2013-05-02 19:11:00,
2013-05-02 15:22:00,44.0,-99.9,-100.00,WNW,293,10.0,13.0,-999,-99.99,,,-99.99,,2013-05-02 19:22:00,
2013-05-02 15:32:00,45.0,-99.9,-100.00,WNW,283,9.0,11.0,-999,-99.99,,,-99.99,,2013-05-02 19:32:00,
2013-05-02 15:42:00,45.0,-99.9,-100.00,WNW,283,9.0,11.0,-999,-99.99,,,-99.99,,2013-05-02 19:42:00,
2013-05-02 15:52:00,45.0,-99.9,-100.00,WNW,283,9.0,11.0,-999,-99.99,,,-99.99,,2013-05-02 19:52:00,
2013-05-02 16:00:00,45.0,-99.9,-100.00,NW,316,12.0,14.0,-999,-99.99,,,-99.99,,2013-05-02 20:00:00,
2013-05-02 16:02:00,45.0,-99.9,-100.00,WNW,283,9.0,11.0,-999,-99.99,,,-99.99,,2013-05-02 20:02:00,
2013-05-02 16:12:00,45.0,-99.9,-100.00,WNW,283,9.0,11.0,-999,-99.99,,,-99.99,,2013-05-02 20:12:00,
2013-05-02 16:22:00,45.0,-99.9,-100.00,NW,316,12.0,14.0,-999,-99.99,,,-99.99,,2013-05-02 20:22:00,
2013-05-02 16:32:00,45.0,-99.9,-100.00,NW,316,12.0,14.0,-999,-99.99,,,-99.99,,2013-05-02 20:32:00,
2013-05-02 16:42:00,45.0,-99.9,-100.00,NW,316,12.0,14.0,-999,-99.99,,,-99.99,,2013-05-02 20:42:00,
2013-05-02 16:52:00,45.0,-99.9,-100.00,NW,316,12.0,14.0,-999,-99.99,,,-99.99,,2013-05-02 20:52:00,
2013-05-02 17:22:00,45.0,-99.9,-100.00,NNW,340,12.0,16.0,-999,-99.99,,,-99.99,,2013-05-02 21:22:00,
2013-05-02 17:33:00,45.0,-99.9,-100.00,NNW,340,12.0,16.0,-999,-99.99,,,-99.99,,2013-05-02 21:33:00,
2013-05-02 17:43:00,45.0,-99.9,-100.00,NNW,340,12.0,16.0,-999,-99.99,,,-99.99,,2013-05-02 21:43:00,
2013-05-02 17:53:00,45.0,-99.9,-100.00,NNW,344,12.0,16.0,-999,-99.99,,,-99.99,,2013-05-02 21:53:00,
2013-05-02 18:03:00,45.0,-99.9,-100.00,NNW,344,12.0,16.0,-999,-99.99,,,-99.99,,2013-05-02 22:03:00,
2013-05-02 18:13:00,45.0,-99.9,-100.00,NNW,344,12.0,16.0,-999,-99.99,,,-99.99,,2013-05-02 22:13:00,
2013-05-02 18:22:00,45.0,-99.9,-100.00,North,350,13.0,17.0,-999,-99.99,,,-99.99,,2013-05-02 22:22:00,
2013-05-02 18:33:00,45.0,-99.9,-100.00,North,350,13.0,17.0,-999,-99.99,,,-99.99,,2013-05-02 22:33:00,
2013-05-02 18:43:00,45.0,-99.9,-100.00,NNW,344,12.0,16.0,-999,-99.99,,,-99.99,,2013-05-02 22:43:00,
2013-05-02 18:53:00,45.0,-99.9,-100.00,NNW,344,12.0,16.0,-999,-99.99,,,-99.99,,2013-05-02 22:53:00,
2013-05-02 19:02:00,44.0,-99.9,-100.00,North,356,15.0,18.0,-999,-99.99,,,-99.99,,2013-05-02 23:02:00,
2013-05-02 19:12:00,44.0,-99.9,-100.00,North,356,15.0,18.0,-999,-99.99,,,-99.99,,2013-05-02 23:12:00,
2013-05-02 19:22:00,45.0,-99.9,-100.00,North,357,13.0,17.0,-999,-99.99,,,-99.99,,2013-05-02 23:22:00,
2013-05-02 19:32:00,45.0,-99.9,-100.00,North,357,13.0,17.0,-999,-99.99,,,-99.99,,2013-05-02 23:32:00,
2013-05-02 19:42:00,45.0,-99.9,-100.00,North,357,13.0,17.0,-999,-99.99,,,-99.99,,2013-05-02 23:42:00,
2013-05-02 19:52:00,46.0,-99.9,-100.00,North,3,13.0,18.0,-999,-99.99,,,-99.99,,2013-05-02 23:52:00,
2013-05-02 20:02:00,46.0,-99.9,-100.00,North,3,13.0,18.0,-999,-99.99,,,-99.99,,2013-05-03 00:02:00,
2013-05-02 20:12:00,46.0,-99.9,-100.00,North,3,13.0,18.0,-999,-99.99,,,-99.99,,2013-05-03 00:12:00,
2013-05-02 20:22:00,46.0,-99.9,-100.00,North,358,14.0,16.0,-999,-99.99,,,-99.99,,2013-05-03 00:22:00,
2013-05-02 20:32:00,46.0,-99.9,-100.00,North,358,14.0,16.0,-999,-99.99,,,-99.99,,2013-05-03 00:32:00,
2013-05-02 20:42:00,46.0,-99.9,-100.00,North,358,14.0,16.0,-999,-99.99,,,-99.99,,2013-05-03 00:42:00,
2013-05-02 20:52:00,45.0,-99.9,-100.00,NNW,344,11.0,17.0,-999,-99.99,,,-99.99,,2013-05-03 00:52:00,
2013-05-02 21:02:00,45.0,-99.9,-100.00,NNW,344,11.0,17.0,-999,-99.99,,,-99.99,,2013-05-03 01:02:00,
2013-05-02 21:11:00,45.0,-99.9,-100.00,NNW,344,11.0,17.0,-999,-99.99,,,-99.99,,2013-05-03 01:11:00,
2013-05-02 21:22:00,45.0,-99.9,-100.00,NW,320,9.0,12.0,-999,-99.99,,,-99.99,,2013-05-03 01:22:00,
2013-05-02 21:32:00,45.0,-99.9,-100.00,NW,320,9.0,12.0,-999,-99.99,,,-99.99,,2013-05-03 01:32:00,
2013-05-02 21:42:00,45.0,-99.9,-100.00,NW,320,9.0,12.0,-999,-99.99,,,-99.99,,2013-05-03 01:42:00,
2013-05-02 21:52:00,44.0,-99.9,-100.00,NNW,328,10.0,14.0,-999,-99.99,,,-99.99,,2013-05-03 01:52:00,
2013-05-02 22:02:00,44.0,-99.9,-100.00,NNW,328,10.0,14.0,-999,-99.99,,,-99.99,,2013-05-03 02:02:00,
2013-05-02 22:11:00,44.0,-99.9,-100.00,NNW,328,10.0,14.0,-999,-99.99,,,-99.99,,2013-05-03 02:11:00,
2013-05-02 22:22:00,44.0,-99.9,-100.00,WNW,299,10.0,12.0,-999,-99.99,,,-99.99,,2013-05-03 02:22:00,
2013-05-02 22:32:00,44.0,-99.9,-100.00,WNW,299,10.0,12.0,-999,-99.99,,,-99.99,,2013-05-03 02:32:00,
2013-05-02 22:42:00,44.0,-99.9,-100.00,NNW,328,10.0,14.0,-999,-99.99,,,-99.99,,2013-05-03 02:42:00,
2013-05-02 22:52:00,44.0,-99.9,-100.00,NNW,328,10.0,14.0,-999,-99.99,,,-99.99,,2013-05-03 02:52:00,
2013-05-02 23:00:00,44.0,-99.9,-100.00,NNW,339,12.0,16.0,-999,-99.99,,,-99.99,,2013-05-03 03:00:00,
2013-05-02 23:01:00,44.0,-99.9,-100.00,NW,322,13.0,15.0,-999,-99.99,,,-99.99,,2013-05-03 03:01:00,
2013-05-02 23:11:00,44.0,-99.9,-100.00,NW,322,13.0,15.0,-999,-99.99,,,-99.99,,2013-05-03 03:11:00,
2013-05-02 23:22:00,44.0,-99.9,-100.00,NNW,339,12.0,16.0,-999,-99.99,,,-99.99,,2013-05-03 03:22:00,
2013-05-02 23:33:00,44.0,-99.9,-100.00,NNW,339,12.0,16.0,-999,-99.99,,,-99.99,,2013-05-03 03:33:00,
2013-05-02 23:43:00,44.0,-99.9,-100.00,NNW,339,12.0,16.0,-999,-99.99,,,-99.99,,2013-05-03 03:43:00,
2013-05-02 23:53:00,44.0,-99.9,-100.00,NNW,339,12.0,16.0,-999,-99.99,,,-99.99,,2013-05-03 03:53:00,